Tracking 28790 objects as of 19-Apr-2024
HD Live streaming from Space Station
objects crossing your sky now

GEESAT 8

Track GEESAT 8 now!
10-day predictions


NORAD ID: 52792
Int'l Code: 2022-058H
Perigee: 605.3 km
Apogee: 613.7 km
Inclination: 50.0 °
Period: 96.7 minutes
Semi major axis: 6980 km
RCS: Unknown
Launch date: June 2, 2022
Source: People's Republic of China (PRC)
Launch site: Xichang Space Center, China (XSC)
Your satellite tracking list
Your tracking list is empty




NASA's NSSDC Master Catalog

Two Line Element Set (TLE):
1 52792U 22058H   24110.17937443  .00009340  00000-0  10158-2 0  9991
2 52792  49.9940 304.8001 0006017  28.9558 331.1715 14.88579384102156
Source of the keplerian elements: AFSPC